Location: Allos
(44.2333°N, 6.6333°E)
Time: 22:36:02
(UTC+00:00)

Cosmos 1821 Rocket - Pass Details

Date: 24 April 2021
Orbit: 946 x 1003 km, 82.9° (Epoch: 16 May)

Event Time Altitude Azimuth Distance (km) Brightness Sun altitude
Rises 23:25:15 0° 6° (N) 3,715 8.1 -32.6°
Reaches altitude 10° 23:29:14 10° 31° (NNE) 2,771 7.0 -32.6°
Maximum altitude 23:32:31 14° 62° (ENE) 2,469 6.4 -32.6°
Enters shadow 23:35:29 11° 91° (E) 2,726 6.3 -32.6°
